#Datum;Uhrzeit;WR;Pac;DaySum;Status;WR;Pac;DaySum;Status;Pdc1;Udc;Temp;WR;Pac;DaySum;Status;Pdc1;Udc;Temp;WR;Pac;DaySum;Status;Pdc1;Udc;Temp;WR;Pac;DaySum;Status;Pdc1;Pdc2;Udc1;Udc2;Temp;WR;Pac;DaySum;Status;Pdc1;Pdc2;Udc1;Udc2;Temp;WR;Pac;DaySum;Status;Pdc1;Udc;Temp;WR;Pac;DaySum;Status;Pdc1;Udc;Temp;WR;Pac;DaySum;Status;Pdc1;Udc;Temp
06.01.18;23:55:00;1;274;13480;0;2;0;12302;0;0;0;0;3;0;7894;0;0;0;0;4;0;8204;0;0;0;0;5;0;25455;0;0;0;0;0;0;6;0;19887;0;0;0;0;0;0;7;0;19156;0;0;0;0;8;0;18452;0;0;0;0;9;0;9491;0;0;0;0
06.01.18;23:50:00;1;631;13445;0;2;0;12302;0;0;0;0;3;0;7894;0;0;0;0;4;0;8204;0;0;0;0;5;0;25455;0;0;0;0;0;0;6;0;19887;0;0;0;0;0;0;7;0;19156;0;0;0;0;8;0;18452;0;0;0;0;9;0;9491;0;0;0;0
06.01.18;23:45:00;1;232;13403;0;2;0;12302;0;0;0;0;3;0;7894;0;0;0;0;4;0;8204;0;0;0;0;5;0;25455;0;0;0;0;0;0;6;0;19887;0;0;0;0;0;0;7;0;19156;0;0;0;0;8;0;18452;0;0;0;0;9;0;9491;0;0;0;0
06.01.18;23:40:00;1;299;13383;0;2;0;12302;0;0;0;0;3;0;7894;0;0;0;0;4;0;8204;0;0;0;0;5;0;25455;0;0;0;0;0;0;6;0;19887;0;0;0;0;0;0;7;0;19156;0;0;0;0;8;0;18452;0;0;0;0;9;0;9491;0;0;0;0
06.01.18;23:35:00;1;300;13358;0;2;0;12302;0;0;0;0;3;0;7894;0;0;0;0;4;0;8204;0;0;0;0;5;0;25455;0;0;0;0;0;0;6;0;19887;0;0;0;0;0;0;7;0;19156;0;0;0;0;8;0;18452;0;0;0;0;9;0;9491;0;0;0;0
06.01.18;23:30:00;1;300;13333;0;2;0;12302;0;0;0;0;3;0;7894;0;0;0;0;4;0;8204;0;0;0;0;5;0;25455;0;0;0;0;0;0;6;0;19887;0;0;0;0;0;0;7;0;19156;0;0;0;0;8;0;18452;0;0;0;0;9;0;9491;0;0;0;0
06.01.18;23:25:00;1;301;13308;0;2;0;12302;0;0;0;0;3;0;7894;0;0;0;0;4;0;8204;0;0;0;0;5;0;25455;0;0;0;0;0;0;6;0;19887;0;0;0;0;0;0;7;0;19156;0;0;0;0;8;0;18452;0;0;0;0;9;0;9491;0;0;0;0
06.01.18;23:20:00;1;300;13283;0;2;0;12302;0;0;0;0;3;0;7894;0;0;0;0;4;0;8204;0;0;0;0;5;0;25455;0;0;0;0;0;0;6;0;19887;0;0;0;0;0;0;7;0;19156;0;0;0;0;8;0;18452;0;0;0;0;9;0;9491;0;0;0;0
06.01.18;23:15:00;1;302;13258;0;2;0;12302;0;0;0;0;3;0;7894;0;0;0;0;4;0;8204;0;0;0;0;5;0;25455;0;0;0;0;0;0;6;0;19887;0;0;0;0;0;0;7;0;19156;0;0;0;0;8;0;18452;0;0;0;0;9;0;9491;0;0;0;0
06.01.18;23:10:00;1;236;13233;0;2;0;12302;0;0;0;0;3;0;7894;0;0;0;0;4;0;8204;0;0;0;0;5;0;25455;0;0;0;0;0;0;6;0;19887;0;0;0;0;0;0;7;0;19156;0;0;0;0;8;0;18452;0;0;0;0;9;0;9491;0;0;0;0
06.01.18;23:05:00;1;677;13214;0;2;0;12302;0;0;0;0;3;0;7894;0;0;0;0;4;0;8204;0;0;0;0;5;0;25455;0;0;0;0;0;0;6;0;19887;0;0;0;0;0;0;7;0;19156;0;0;0;0;8;0;18452;0;0;0;0;9;0;9491;0;0;0;0
06.01.18;23:00:00;1;278;13162;0;2;0;12302;0;0;0;0;3;0;7894;0;0;0;0;4;0;8204;0;0;0;0;5;0;25455;0;0;0;0;0;0;6;0;19887;0;0;0;0;0;0;7;0;19156;0;0;0;0;8;0;18452;0;0;0;0;9;0;9491;0;0;0;0
06.01.18;22:55:00;1;279;13138;0;2;0;12302;0;0;0;0;3;0;7894;0;0;0;0;4;0;8204;0;0;0;0;5;0;25455;2;0;0;0;0;0;6;0;19887;2;0;0;0;0;0;7;0;19156;0;0;0;0;8;0;18452;0;0;0;0;9;0;9491;0;0;0;0
06.01.18;22:50:00;1;235;13115;0;2;0;12302;0;0;0;0;3;0;7894;0;0;0;0;4;0;8204;0;0;0;0;5;0;25455;2;0;0;0;0;0;6;0;19887;2;0;0;0;0;0;7;0;19156;0;0;0;0;8;0;18452;0;0;0;0;9;0;9491;0;0;0;0
06.01.18;22:45:00;1;231;13095;0;2;0;12302;0;0;0;0;3;0;7894;0;0;0;0;4;0;8204;0;0;0;0;5;0;25455;2;0;0;0;0;0;6;0;19887;2;0;0;0;0;0;7;0;19156;0;0;0;0;8;0;18452;0;0;0;0;9;0;9491;0;0;0;0
06.01.18;22:40:00;1;231;13076;0;2;0;12302;0;0;0;0;3;0;7894;0;0;0;0;4;0;8204;0;0;0;0;5;0;25455;2;0;0;0;0;0;6;0;19887;2;0;0;0;0;0;7;0;19156;0;0;0;0;8;0;18452;0;0;0;0;9;0;9491;0;0;0;0
06.01.18;22:35:00;1;231;13057;0;2;0;12302;0;0;0;0;3;0;7894;0;0;0;0;4;0;8204;0;0;0;0;5;0;25455;2;0;0;0;0;0;6;0;19887;2;0;0;0;0;0;7;0;19156;0;0;0;0;8;0;18452;0;0;0;0;9;0;9491;0;0;0;0
06.01.18;22:30:00;1;231;13037;0;2;0;12302;0;0;0;0;3;0;7894;0;0;0;0;4;0;8204;0;0;0;0;5;0;25455;2;0;0;0;0;0;6;0;19887;2;0;0;0;0;0;7;0;19156;0;0;0;0;8;0;18452;0;0;0;0;9;0;9491;0;0;0;0
06.01.18;22:25:00;1;231;13018;0;2;0;12302;0;0;0;0;3;0;7894;0;0;0;0;4;0;8204;0;0;0;0;5;0;25455;2;0;0;0;0;0;6;0;19887;2;0;0;0;0;0;7;0;19156;0;0;0;0;8;0;18452;0;0;0;0;9;0;9491;0;0;0;0
06.01.18;22:20:00;1;589;12999;0;2;0;12302;0;0;0;0;3;0;7894;0;0;0;0;4;0;8204;0;0;0;0;5;0;25455;2;0;0;0;0;0;6;0;19887;2;0;0;0;0;0;7;0;19156;0;0;0;0;8;0;18452;0;0;0;0;9;0;9491;0;0;0;0
06.01.18;22:15:00;1;235;12950;0;2;0;12302;0;0;0;0;3;0;7894;0;0;0;0;4;0;8204;0;0;0;0;5;0;25455;2;0;0;0;0;0;6;0;19887;2;0;0;0;0;0;7;0;19156;0;0;0;0;8;0;18452;0;0;0;0;9;0;9491;0;0;0;0
06.01.18;22:10:00;1;272;12929;0;2;0;12302;0;0;0;0;3;0;7894;0;0;0;0;4;0;8204;0;0;0;0;5;0;25455;2;0;0;0;0;0;6;0;19887;2;0;0;0;0;0;7;0;19156;0;0;0;0;8;0;18452;0;0;0;0;9;0;9491;0;0;0;0
06.01.18;22:05:00;1;279;12907;0;2;0;12302;0;0;0;0;3;0;7894;0;0;0;0;4;0;8204;0;0;0;0;5;0;25455;2;0;0;0;0;0;6;0;19887;2;0;0;0;0;0;7;0;19156;0;0;0;0;8;0;18452;0;0;0;0;9;0;9491;0;0;0;0
06.01.18;22:00:00;1;266;12883;0;2;0;12302;0;0;0;0;3;0;7894;0;0;0;0;4;0;8204;0;0;0;0;5;0;25455;2;0;0;0;0;0;6;0;19887;2;0;0;0;0;0;7;0;19156;0;0;0;0;8;0;18452;0;0;0;0;9;0;9491;0;0;0;0
06.01.18;21:55:00;1;259;12861;0;2;0;12302;0;0;0;0;3;0;7894;0;0;0;0;4;0;8204;0;0;0;0;5;0;25455;2;0;0;0;0;0;6;0;19887;2;0;0;0;0;0;7;0;19156;0;0;0;0;8;0;18452;0;0;0;0;9;0;9491;0;0;0;0
06.01.18;21:50:00;1;307;12838;0;2;0;12302;0;0;0;0;3;0;7894;0;0;0;0;4;0;8204;0;0;0;0;5;0;25455;2;0;0;0;0;0;6;0;19887;2;0;0;0;0;0;7;0;19156;0;0;0;0;8;0;18452;0;0;0;0;9;0;9491;0;0;0;0
06.01.18;21:45:00;1;308;12812;0;2;0;12302;0;0;0;0;3;0;7894;0;0;0;0;4;0;8204;0;0;0;0;5;0;25455;2;0;0;0;0;0;6;0;19887;2;0;0;0;0;0;7;0;19156;0;0;0;0;8;0;18452;0;0;0;0;9;0;9491;0;0;0;0
06.01.18;21:40:00;1;307;12787;0;2;0;12302;0;0;0;0;3;0;7894;0;0;0;0;4;0;8204;0;0;0;0;5;0;25455;2;0;0;0;0;0;6;0;19887;2;0;0;0;0;0;7;0;19156;0;0;0;0;8;0;18452;0;0;0;0;9;0;9491;0;0;0;0
06.01.18;21:35:00;1;307;12761;0;2;0;12302;0;0;0;0;3;0;7894;0;0;0;0;4;0;8204;0;0;0;0;5;0;25455;2;0;0;0;0;0;6;0;19887;2;0;0;0;0;0;7;0;19156;0;0;0;0;8;0;18452;0;0;0;0;9;0;9491;0;0;0;0
06.01.18;21:30:00;1;484;12735;0;2;0;12302;0;0;0;0;3;0;7894;0;0;0;0;4;0;8204;0;0;0;0;5;0;25455;2;0;0;0;0;0;6;0;19887;2;0;0;0;0;0;7;0;19156;0;0;0;0;8;0;18452;0;0;0;0;9;0;9491;0;0;0;0
06.01.18;21:25:00;1;277;12679;0;2;0;12302;0;0;0;0;3;0;7894;0;0;0;0;4;0;8204;0;0;0;0;5;0;25455;2;0;0;0;0;0;6;0;19887;2;0;0;0;0;0;7;0;19156;0;0;0;0;8;0;18452;0;0;0;0;9;0;9491;0;0;0;0
06.01.18;21:20:00;1;254;12657;0;2;0;12302;0;0;0;0;3;0;7894;0;0;0;0;4;0;8204;0;0;0;0;5;0;25455;2;0;0;0;0;0;6;0;19887;2;0;0;0;0;0;7;0;19156;0;0;0;0;8;0;18452;0;0;0;0;9;0;9491;0;0;0;0
06.01.18;21:15:00;1;281;12635;0;2;0;12302;0;0;0;0;3;0;7894;0;0;0;0;4;0;8204;0;0;0;0;5;0;25455;2;0;0;0;0;0;6;0;19887;2;0;0;0;0;0;7;0;19156;0;0;0;0;8;0;18452;0;0;0;0;9;0;9491;0;0;0;0
06.01.18;21:10:00;1;283;12611;0;2;0;12302;0;0;0;0;3;0;7894;0;0;0;0;4;0;8204;0;0;0;0;5;0;25455;2;0;0;0;0;0;6;0;19887;2;0;0;0;0;0;7;0;19156;0;0;0;0;8;0;18452;0;0;0;0;9;0;9491;0;0;0;0
06.01.18;21:05:00;1;260;12588;0;2;0;12302;0;0;0;0;3;0;7894;0;0;0;0;4;0;8204;0;0;0;0;5;0;25455;2;0;0;0;0;0;6;0;19887;2;0;0;0;0;0;7;0;19156;0;0;0;0;8;0;18452;0;0;0;0;9;0;9491;0;0;0;0
06.01.18;21:00:00;1;238;12566;0;2;0;12302;0;0;0;0;3;0;7894;0;0;0;0;4;0;8204;0;0;0;0;5;0;25455;2;0;0;0;0;0;6;0;19887;2;0;0;0;0;0;7;0;19156;0;0;0;0;8;0;18452;0;0;0;0;9;0;9491;0;0;0;0
06.01.18;20:55:00;1;238;12546;0;2;0;12302;0;0;0;0;3;0;7894;0;0;0;0;4;0;8204;0;0;0;0;5;0;25455;2;0;0;0;0;0;6;0;19887;2;0;0;0;0;0;7;0;19156;0;0;0;0;8;0;18452;0;0;0;0;9;0;9491;0;0;0;0
06.01.18;20:50:00;1;238;12526;0;2;0;12302;0;0;0;0;3;0;7894;0;0;0;0;4;0;8204;0;0;0;0;5;0;25455;2;0;0;0;0;0;6;0;19887;2;0;0;0;0;0;7;0;19156;0;0;0;0;8;0;18452;0;0;0;0;9;0;9491;0;0;0;0
06.01.18;20:45:00;1;239;12506;0;2;0;12302;0;0;0;0;3;0;7894;0;0;0;0;4;0;8204;0;0;0;0;5;0;25455;2;0;0;0;0;0;6;0;19887;2;0;0;0;0;0;7;0;19156;0;0;0;0;8;0;18452;0;0;0;0;9;0;9491;0;0;0;0
06.01.18;20:40:00;1;239;12486;0;2;0;12302;0;0;0;0;3;0;7894;0;0;0;0;4;0;8204;0;0;0;0;5;0;25455;2;0;0;0;0;0;6;0;19887;2;0;0;0;0;0;7;0;19156;0;0;0;0;8;0;18452;0;0;0;0;9;0;9491;0;0;0;0
06.01.18;20:35:00;1;240;12466;0;2;0;12302;0;0;0;0;3;0;7894;0;0;0;0;4;0;8204;0;0;0;0;5;0;25455;2;0;0;0;0;0;6;0;19887;2;0;0;0;0;0;7;0;19156;0;0;0;0;8;0;18452;0;0;0;0;9;0;9491;0;0;0;0
06.01.18;20:30:00;1;240;12446;0;2;0;12302;0;0;0;0;3;0;7894;0;0;0;0;4;0;8204;0;0;0;0;5;0;25455;2;0;0;0;0;0;6;0;19887;2;0;0;0;0;0;7;0;19156;0;0;0;0;8;0;18452;0;0;0;0;9;0;9491;0;0;0;0
06.01.18;20:25:00;1;280;12426;0;2;0;12302;0;0;0;0;3;0;7894;0;0;0;0;4;0;8204;0;0;0;0;5;0;25455;2;0;0;0;0;0;6;0;19887;2;0;0;0;0;0;7;0;19156;0;0;0;0;8;0;18452;0;0;0;0;9;0;9491;0;0;0;0
06.01.18;20:20:00;1;485;12403;0;2;0;12302;0;0;0;0;3;0;7894;0;0;0;0;4;0;8204;0;0;0;0;5;0;25455;2;0;0;0;0;0;6;0;19887;2;0;0;0;0;0;7;0;19156;0;0;0;0;8;0;18452;0;0;0;0;9;0;9491;0;0;0;0
06.01.18;20:15:00;1;327;12350;0;2;0;12302;0;0;0;0;3;0;7894;0;0;0;0;4;0;8204;0;0;0;0;5;0;25455;2;0;0;0;0;0;6;0;19887;2;0;0;0;0;0;7;0;19156;0;0;0;0;8;0;18452;0;0;0;0;9;0;9491;0;0;0;0
06.01.18;20:10:00;1;248;12326;0;2;0;12302;0;0;0;0;3;0;7894;0;0;0;0;4;0;8204;0;0;0;0;5;0;25455;2;0;0;0;0;0;6;0;19887;2;0;0;0;0;0;7;0;19156;0;0;0;0;8;0;18452;0;0;0;0;9;0;9491;0;0;0;0
06.01.18;20:05:00;1;306;12305;0;2;0;12302;0;0;0;0;3;0;7894;0;0;0;0;4;0;8204;0;0;0;0;5;0;25455;2;0;0;0;0;0;6;0;19887;2;0;0;0;0;0;7;0;19156;0;0;0;0;8;0;18452;0;0;0;0;9;0;9491;0;0;0;0
06.01.18;20:00:00;1;305;12279;0;2;0;12302;0;0;0;0;3;0;7894;0;0;0;0;4;0;8204;0;0;0;0;5;0;25455;2;0;0;0;0;0;6;0;19887;2;0;0;0;0;0;7;0;19156;0;0;0;0;8;0;18452;0;0;0;0;9;0;9491;0;0;0;0
06.01.18;19:55:00;1;305;12254;0;2;0;12302;0;0;0;0;3;0;7894;0;0;0;0;4;0;8204;0;0;0;0;5;0;25455;2;0;0;0;0;0;6;0;19887;2;0;0;0;0;0;7;0;19156;0;0;0;0;8;0;18452;0;0;0;0;9;0;9491;0;0;0;0
06.01.18;19:50:00;1;307;12228;0;2;0;12302;0;0;0;0;3;0;7894;0;0;0;0;4;0;8204;0;0;0;0;5;0;25455;2;0;0;0;0;0;6;0;19887;2;0;0;0;0;0;7;0;19156;0;0;0;0;8;0;18452;0;0;0;0;9;0;9491;0;0;0;0
06.01.18;19:45:00;1;305;12202;0;2;0;12302;0;0;0;0;3;0;7894;0;0;0;0;4;0;8204;0;0;0;0;5;0;25455;2;0;0;0;0;0;6;0;19887;2;0;0;0;0;0;7;0;19156;0;0;0;0;8;0;18452;0;0;0;0;9;0;9491;0;0;0;0
06.01.18;19:40:00;1;308;12177;0;2;0;12302;0;0;0;0;3;0;7894;0;0;0;0;4;0;8204;0;0;0;0;5;0;25455;2;0;0;0;0;0;6;0;19887;2;0;0;0;0;0;7;0;19156;0;0;0;0;8;0;18452;0;0;0;0;9;0;9491;0;0;0;0
06.01.18;19:35:00;1;239;12152;0;2;0;12302;0;0;0;0;3;0;7894;0;0;0;0;4;0;8204;0;0;0;0;5;0;25455;2;0;0;0;0;0;6;0;19887;2;0;0;0;0;0;7;0;19156;0;0;0;0;8;0;18452;0;0;0;0;9;0;9491;0;0;0;0
06.01.18;19:30:00;1;280;12132;0;2;0;12302;0;0;0;0;3;0;7894;0;0;0;0;4;0;8204;0;0;0;0;5;0;25455;2;0;0;0;0;0;6;0;19887;2;0;0;0;0;0;7;0;19156;0;0;0;0;8;0;18452;0;0;0;0;9;0;9491;0;0;0;0
06.01.18;19:25:00;1;294;12109;0;2;0;12302;0;0;0;0;3;0;7894;0;0;0;0;4;0;8204;0;0;0;0;5;0;25455;2;0;0;0;0;0;6;0;19887;2;0;0;0;0;0;7;0;19156;0;0;0;0;8;0;18452;0;0;0;0;9;0;9491;0;0;0;0
06.01.18;19:20:00;1;277;12083;0;2;0;12302;0;0;0;0;3;0;7894;0;0;0;0;4;0;8204;0;0;0;0;5;0;25455;2;0;0;0;0;0;6;0;19887;2;0;0;0;0;0;7;0;19156;0;0;0;0;8;0;18452;0;0;0;0;9;0;9491;0;0;0;0
06.01.18;19:15:00;1;238;12059;0;2;0;12302;0;0;0;0;3;0;7894;0;0;0;0;4;0;8204;0;0;0;0;5;0;25455;2;0;0;0;0;0;6;0;19887;2;0;0;0;0;0;7;0;19156;0;0;0;0;8;0;18452;0;0;0;0;9;0;9491;0;0;0;0
06.01.18;19:10:00;1;238;12039;0;2;0;12302;0;0;0;0;3;0;7894;0;0;0;0;4;0;8204;0;0;0;0;5;0;25455;2;0;0;0;0;0;6;0;19887;2;0;0;0;0;0;7;0;19156;0;0;0;0;8;0;18452;0;0;0;0;9;0;9491;0;0;0;0
06.01.18;19:05:00;1;241;12019;0;2;0;12302;0;0;0;0;3;0;7894;0;0;0;0;4;0;8204;0;0;0;0;5;0;25455;2;0;0;0;0;0;6;0;19887;2;0;0;0;0;0;7;0;19156;0;0;0;0;8;0;18452;0;0;0;0;9;0;9491;0;0;0;0
06.01.18;19:00:00;1;589;11982;0;2;0;12302;0;0;0;0;3;0;7894;0;0;0;0;4;0;8204;0;0;0;0;5;0;25455;2;0;0;0;0;0;6;0;19887;2;0;0;0;0;0;7;0;19156;0;0;0;0;8;0;18452;0;0;0;0;9;0;9491;0;0;0;0
06.01.18;18:55:00;1;237;11949;0;2;0;12302;0;0;0;0;3;0;7894;0;0;0;0;4;0;8204;0;0;0;0;5;0;25455;2;0;0;0;0;0;6;0;19887;2;0;0;0;0;0;7;0;19156;0;0;0;0;8;0;18452;0;0;0;0;9;0;9491;0;0;0;0
06.01.18;18:50:00;1;237;11929;0;2;0;12302;0;0;0;0;3;0;7894;0;0;0;0;4;0;8204;0;0;0;0;5;0;25455;2;0;0;0;0;0;6;0;19887;2;0;0;0;0;0;7;0;19156;0;0;0;0;8;0;18452;0;0;0;0;9;0;9491;0;0;0;0
06.01.18;18:45:00;1;237;11910;0;2;0;12302;0;0;0;0;3;0;7894;0;0;0;0;4;0;8204;0;0;0;0;5;0;25455;2;0;0;0;0;0;6;0;19887;2;0;0;0;0;0;7;0;19156;0;0;0;0;8;0;18452;0;0;0;0;9;0;9491;0;0;0;0
06.01.18;18:40:00;1;253;11890;0;2;0;12302;0;0;0;0;3;0;7894;0;0;0;0;4;0;8204;0;0;0;0;5;0;25455;2;0;0;0;0;0;6;0;19887;2;0;0;0;0;0;7;0;19156;0;0;0;0;8;0;18452;0;0;0;0;9;0;9491;0;0;0;0
06.01.18;18:35:00;1;305;11868;0;2;0;12302;0;0;0;0;3;0;7894;0;0;0;0;4;0;8204;0;0;0;0;5;0;25455;2;0;0;0;0;0;6;0;19887;2;0;0;0;0;0;7;0;19156;0;0;0;0;8;0;18452;0;0;0;0;9;0;9491;0;0;0;0
06.01.18;18:30:00;1;440;11842;0;2;0;12302;0;0;0;0;3;0;7894;0;0;0;0;4;0;8204;0;0;0;0;5;0;25455;2;0;0;0;0;0;6;0;19887;2;0;0;0;0;0;7;0;19156;0;0;0;0;8;0;18452;0;0;0;0;9;0;9491;0;0;0;0
06.01.18;18:25:00;1;504;11805;0;2;0;12302;0;0;0;0;3;0;7894;0;0;0;0;4;0;8204;0;0;0;0;5;0;25455;2;0;0;0;0;0;6;0;19887;2;0;0;0;0;0;7;0;19156;0;0;0;0;8;0;18452;0;0;0;0;9;0;9491;0;0;0;0
06.01.18;18:20:00;1;454;11757;0;2;0;12302;0;0;0;0;3;0;7894;0;0;0;0;4;0;8204;0;0;0;0;5;0;25455;2;0;0;0;0;0;6;0;19887;2;0;0;0;0;0;7;0;19156;0;0;0;0;8;0;18452;0;0;0;0;9;0;9491;0;0;0;0
06.01.18;18:15:00;1;417;11720;0;2;0;12302;0;0;0;0;3;0;7894;0;0;0;0;4;0;8204;0;0;0;0;5;0;25455;2;0;0;0;0;0;6;0;19887;2;0;0;0;0;0;7;0;19156;0;0;0;0;8;0;18452;0;0;0;0;9;0;9491;0;0;0;0
06.01.18;18:10:00;1;408;11686;0;2;0;12302;0;0;0;0;3;0;7894;0;0;0;0;4;0;8204;0;0;0;0;5;0;25455;2;0;0;0;0;0;6;0;19887;2;0;0;0;0;0;7;0;19156;0;0;0;0;8;0;18452;0;0;0;0;9;0;9491;0;0;0;0
06.01.18;18:05:00;1;428;11651;0;2;0;12302;0;0;0;0;3;0;7894;0;0;0;0;4;0;8204;0;0;0;0;5;0;25455;2;0;0;0;0;0;6;0;19887;2;0;0;0;0;0;7;0;19156;0;0;0;0;8;0;18452;0;0;0;0;9;0;9491;0;0;0;0
06.01.18;18:00:00;1;412;11615;0;2;0;12302;0;0;0;0;3;0;7894;0;0;0;0;4;0;8204;0;0;0;0;5;0;25455;2;0;0;0;0;0;6;0;19887;2;0;0;0;0;0;7;0;19156;0;0;0;0;8;0;18452;0;0;0;0;9;0;9491;0;0;0;0
06.01.18;17:55:00;1;410;11580;0;2;0;12302;0;0;0;0;3;0;7894;0;0;0;0;4;0;8204;0;0;0;0;5;0;25455;2;0;0;0;0;0;6;0;19887;2;0;0;0;0;0;7;0;19156;0;0;0;0;8;0;18452;0;0;0;0;9;0;9491;0;0;0;0
06.01.18;17:50:00;1;342;11547;0;2;0;12302;0;0;0;0;3;0;7894;0;0;0;0;4;0;8204;0;0;0;0;5;0;25455;2;0;0;0;0;0;6;0;19887;2;0;0;0;0;0;7;0;19156;0;0;0;0;8;0;18452;0;0;0;0;9;0;9491;0;0;0;0
06.01.18;17:45:00;1;403;11518;0;2;0;12302;0;0;0;0;3;0;7894;0;0;0;0;4;0;8204;0;0;0;0;5;0;25455;2;0;0;0;0;0;6;0;19887;2;0;0;0;0;0;7;0;19156;0;0;0;0;8;0;18452;0;0;0;0;9;0;9491;0;0;0;0
06.01.18;17:40:00;1;411;11484;0;2;0;12302;0;0;0;0;3;0;7894;0;0;0;0;4;0;8204;0;0;0;0;5;0;25455;2;0;0;0;0;0;6;0;19887;2;0;0;0;0;0;7;0;19156;0;0;0;0;8;0;18452;0;0;0;0;9;0;9491;0;0;0;0
06.01.18;17:35:00;1;374;11450;0;2;0;12302;0;0;0;0;3;0;7894;0;0;0;0;4;0;8204;0;0;0;0;5;0;25455;2;0;0;0;0;0;6;0;19887;2;0;0;0;0;0;7;0;19156;0;0;0;0;8;0;18452;0;0;0;0;9;0;9491;0;0;0;0
06.01.18;17:30:00;1;445;11418;0;2;0;12302;0;0;0;0;3;0;7894;0;0;0;0;4;0;8204;0;0;0;0;5;0;25455;2;0;0;0;0;0;6;0;19887;2;0;0;0;0;0;7;0;19156;0;0;0;0;8;0;18452;0;0;0;0;9;0;9491;0;0;0;0
06.01.18;17:25:00;1;512;11374;0;2;0;12302;0;0;0;0;3;0;7894;0;0;0;0;4;0;8204;0;0;0;0;5;0;25455;2;0;0;0;0;0;6;0;19887;2;0;0;0;0;0;7;0;19156;0;0;0;0;8;0;18452;0;0;0;0;9;0;9491;0;0;0;0
06.01.18;17:20:00;1;1104;11334;0;2;0;12302;0;0;0;0;3;0;7894;0;0;0;0;4;0;8204;0;0;0;0;5;0;25455;2;0;0;0;0;0;6;0;19887;2;0;0;0;0;0;7;0;19156;0;0;0;0;8;0;18452;0;0;0;0;9;0;9491;0;0;0;0
06.01.18;17:15:00;1;443;11263;0;2;0;12302;0;0;0;0;3;0;7894;0;0;0;0;4;0;8204;0;0;0;0;5;0;25455;2;0;0;0;0;0;6;0;19887;2;0;0;0;0;0;7;0;19156;0;0;0;0;8;0;18452;0;0;0;0;9;0;9491;0;0;0;0
06.01.18;17:10:00;1;472;11226;0;2;0;12302;0;0;0;0;3;0;7894;0;0;0;0;4;0;8204;0;0;0;0;5;0;25455;2;0;0;0;0;0;6;0;19887;2;0;0;0;0;0;7;0;19156;0;0;0;0;8;0;18452;0;0;0;0;9;0;9491;0;0;0;0
06.01.18;17:05:00;1;472;11187;0;2;0;12302;0;0;0;0;3;0;7894;0;0;0;0;4;0;8204;0;0;0;0;5;0;25455;2;0;0;0;0;0;6;0;19887;2;0;0;0;0;0;7;0;19156;0;0;0;0;8;0;18452;0;0;0;0;9;0;9491;0;0;0;0
06.01.18;17:00:00;1;490;11147;0;2;0;12302;0;0;0;0;3;0;7894;0;0;0;0;4;0;8204;0;0;0;0;5;0;25455;2;0;0;0;0;0;6;0;19887;2;0;0;0;0;0;7;0;19156;0;0;0;0;8;0;18452;0;0;0;0;9;0;9491;0;0;0;0
06.01.18;16:55:00;1;490;11107;0;2;0;12302;0;0;83;5;3;0;7894;0;0;226;15;4;0;8204;0;0;0;0;5;0;25455;2;0;0;0;0;0;6;0;19887;2;0;0;0;0;0;7;0;19156;0;0;0;0;8;0;18452;0;0;0;0;9;0;9491;0;0;0;0
06.01.18;16:50:00;1;619;11065;0;2;0;12302;6;0;291;17;3;0;7894;6;0;331;19;4;0;8204;0;0;55;14;5;0;25455;2;0;0;0;0;0;6;0;19887;2;0;0;0;0;0;7;0;19156;0;0;0;0;8;0;18452;0;0;0;0;9;0;9491;0;0;0;0
06.01.18;16:45:00;1;801;11014;0;2;0;12302;6;0;348;18;3;0;7894;6;0;432;20;4;0;8204;1;0;126;17;5;0;25455;2;0;0;282;310;22;6;0;19887;1;3;4;347;143;21;7;0;19156;0;0;227;17;8;0;18452;0;0;220;16;9;0;9491;0;0;224;12
06.01.18;16:40:00;1;975;10946;0;2;0;12302;6;0;370;18;3;0;7894;4;4;429;20;4;0;8204;1;0;166;18;5;0;25455;23;0;1;388;400;28;6;0;19887;23;5;3;237;463;27;7;0;19156;6;0;343;22;8;0;18452;6;0;341;21;9;0;9491;6;0;347;16
06.01.18;16:35:00;1;893;10870;0;2;0;12302;6;0;379;19;3;1;7894;3;3;457;21;4;0;8204;1;0;184;18;5;14;25455;26;0;0;396;603;29;6;0;19887;23;8;2;181;540;27;7;0;19156;6;0;378;22;8;0;18452;6;0;378;22;9;0;9491;6;0;394;17
06.01.18;16:30:00;1;1081;10790;0;2;0;12302;6;0;392;20;3;2;7894;6;3;475;21;4;0;8204;1;0;211;19;5;8;25454;26;0;0;409;645;29;6;0;19887;23;8;2;182;562;28;7;0;19156;6;1;412;23;8;0;18452;6;0;414;22;9;0;9491;6;0;437;17
06.01.18;16:25:00;1;878;10701;0;2;0;12302;6;0;401;20;3;2;7893;6;5;485;21;4;0;8204;1;0;226;19;5;13;25454;26;0;0;413;657;30;6;7;19887;23;6;15;484;549;29;7;2;19156;6;4;414;24;8;0;18452;6;2;433;23;9;1;9491;3;3;437;18
06.01.18;16:20:00;1;526;10636;0;2;0;12302;6;0;410;21;3;0;7893;6;5;503;22;4;0;8204;3;0;217;20;5;83;25452;4;9;15;372;591;31;6;54;19886;4;20;34;479;456;30;7;2;19156;6;4;455;24;8;0;18452;6;0;460;23;9;1;9491;6;3;494;18
06.01.18;16:15:00;1;555;10591;0;2;34;12302;6;58;366;22;3;3;7893;6;8;509;22;4;1;8204;3;1;208;20;5;109;25445;4;29;30;372;591;31;6;77;19881;4;32;46;479;456;30;7;0;19156;6;0;488;25;8;5;18452;3;18;438;24;9;1;9491;6;10;477;18
06.01.18;16:10:00;1;496;10547;0;2;53;12299;4;86;356;23;3;3;7893;4;8;501;23;4;6;8204;3;6;199;20;5;133;25436;4;41;42;372;591;31;6;96;19875;4;34;49;479;456;30;7;39;19156;4;70;366;26;8;10;18452;6;21;449;25;9;1;9491;6;5;523;19
06.01.18;16:05:00;1;468;10505;0;2;97;12295;4;132;361;24;3;18;7893;3;31;508;24;4;28;8204;3;29;198;20;5;187;25424;4;67;63;372;591;31;6;127;19867;4;67;91;479;456;30;7;83;19152;4;118;439;26;8;57;18451;4;88;398;25;9;5;9490;6;10;533;19
06.01.18;16:00:00;1;483;10467;0;2;299;12287;4;343;385;26;3;103;7891;4;140;468;25;4;89;8201;3;93;201;21;5;225;25409;4;94;87;372;591;32;6;177;19856;4;89;116;483;473;30;7;245;19146;4;279;435;27;8;98;18446;4;130;401;26;9;5;9490;6;10;546;20
06.01.18;15:55:00;1;508;10425;0;2;914;12262;4;980;384;27;3;440;7882;4;489;432;25;4;190;8194;5;197;200;21;5;376;25389;4;163;158;386;587;32;6;523;19840;4;220;313;591;584;30;7;724;19126;4;773;436;27;8;174;18438;4;209;376;26;9;20;9490;3;32;528;21
06.01.18;15:50:00;1;497;10384;0;2;1085;12188;4;1157;381;28;3;580;7847;4;634;429;26;4;224;8178;5;233;201;21;5;757;25356;4;335;350;393;668;32;6;915;19793;4;460;492;593;564;31;7;1106;19067;4;1177;447;28;8;550;18424;4;591;360;27;9;66;9487;4;98;471;22
06.01.18;15:45:00;1;412;10342;0;2;1200;12097;4;1275;384;28;3;648;7799;4;703;438;26;4;238;8160;5;247;202;21;5;1238;25290;4;570;590;377;682;32;6;1080;19716;4;542;545;590;562;31;7;1346;18975;4;1417;422;28;8;866;18379;4;915;433;27;9;78;9482;4;109;469;22
06.01.18;15:40:00;1;401;10307;0;2;1323;11998;4;1401;378;29;3;714;7745;4;773;431;27;4;264;8140;5;275;200;22;5;1325;25186;4;583;636;422;692;33;6;1207;19625;4;609;611;599;572;31;7;1790;18863;4;1887;471;29;8;1092;18308;4;1155;394;28;9;91;9476;4;123;479;23
06.01.18;15:35:00;1;388;10274;0;2;1448;11888;4;1533;377;30;3;784;7686;4;845;427;27;4;299;8118;5;312;200;22;5;1698;25074;4;857;765;387;696;33;6;1390;19524;4;694;709;594;567;31;7;2113;18715;4;2226;474;29;8;1535;18218;4;1615;406;29;9;90;9468;4;116;367;23
06.01.18;15:30:00;1;398;10241;0;2;1571;11768;4;1662;382;31;3;857;7621;4;919;427;28;4;331;8093;5;345;205;22;5;1963;24931;4;1000;901;407;681;33;6;1576;19407;4;791;782;591;566;31;7;2362;18540;4;2484;473;29;8;2067;18091;4;2170;441;29;9;153;9460;4;180;352;24
06.01.18;15:25:00;1;396;10207;0;2;1678;11637;4;1770;379;31;3;914;7549;4;974;431;28;4;364;8066;5;379;211;22;5;2269;24765;4;1153;1000;419;678;33;6;1748;19275;4;884;891;589;567;31;7;2569;18343;4;2697;467;30;8;2356;17921;4;2474;454;29;9;384;9448;4;418;351;25
06.01.18;15:20:00;1;392;10174;0;2;1759;11497;4;1858;386;32;3;944;7473;4;1010;435;29;4;383;8035;5;399;204;23;5;2415;24577;4;1267;1058;426;688;34;6;1849;19130;4;932;926;588;564;31;7;2632;18130;4;2765;470;30;8;2518;17725;4;2641;458;30;9;787;9417;4;835;354;27
06.01.18;15:15:00;1;453;10141;0;2;1996;11352;4;2111;399;33;3;1059;7395;4;1130;450;29;4;446;8004;5;464;213;23;5;2736;24373;4;1457;1194;425;692;34;6;2080;18974;4;1062;1059;590;565;31;7;2880;17914;4;3015;463;30;8;2815;17517;4;2958;469;30;9;1062;9353;4;1121;375;27
06.01.18;15:10:00;1;470;10101;0;2;2091;11185;4;2209;401;33;3;1202;7307;4;1282;465;30;4;486;7967;5;507;219;23;5;2957;24144;4;1584;1288;422;689;34;6;2244;18799;4;1154;1150;590;566;32;7;3031;17672;4;3184;462;31;8;2991;17283;4;3136;464;30;9;1266;9265;4;1338;406;28
06.01.18;15:05:00;1;553;10060;0;2;2177;11012;4;2299;398;34;3;1313;7207;4;1399;485;30;4;521;7926;5;542;231;23;5;3117;23898;4;1670;1376;423;682;34;6;2372;18612;4;1215;1193;589;563;32;7;3171;17419;4;3328;458;31;8;3121;17033;4;3269;459;30;9;1462;9159;4;1547;456;29
06.01.18;15:00:00;1;911;10014;0;2;2251;10831;4;2378;402;34;3;1414;7098;4;1504;496;30;4;553;7883;5;576;230;24;5;3324;23637;4;1778;1469;421;674;34;6;2530;18414;4;1297;1281;590;562;32;7;3269;17155;4;3426;462;31;8;3205;16777;4;3357;458;31;9;1606;9039;4;1696;474;30
06.01.18;14:55:00;1;707;9948;0;2;2272;10643;4;2400;396;34;3;1458;6980;4;1552;501;31;4;573;7837;5;597;231;24;5;3452;23358;4;1872;1527;422;682;34;6;2638;18200;4;1346;1309;588;563;32;7;3333;16883;4;3501;457;31;8;3285;16506;4;3443;465;31;9;1731;8903;4;1832;499;30
06.01.18;14:50:00;1;903;9895;0;2;2383;10453;4;2513;397;34;3;1535;6859;4;1629;503;31;4;605;7789;5;630;228;24;5;3639;23071;4;1966;1608;421;676;34;6;2780;17982;4;1410;1393;583;559;32;7;3446;16605;4;3620;465;31;8;3400;16234;4;3562;458;31;9;1804;8762;4;1908;495;31
06.01.18;14:45:00;1;1788;9826;0;2;2413;10255;4;2548;401;35;3;1569;6731;4;1661;497;31;4;636;7739;5;663;224;24;5;3807;22767;4;2066;1680;420;677;35;6;2898;17749;4;1475;1424;585;560;32;7;3487;16321;4;3660;462;31;8;3441;15952;4;3614;459;31;9;1848;8610;4;1958;504;31
06.01.18;14:40:00;1;1462;9686;0;2;2549;10054;4;2686;387;35;3;1648;6601;4;1750;504;31;4;690;7686;5;718;230;25;5;4100;22444;4;2232;1818;419;668;35;6;3129;17503;4;1606;1569;582;561;32;7;3644;16033;4;3827;462;32;8;3592;15666;4;3769;469;31;9;1947;8457;4;2056;498;31
06.01.18;14:35:00;1;677;9562;0;2;2625;9842;4;2766;398;35;3;1699;6464;4;1800;503;31;4;741;7629;5;772;231;25;5;4283;22102;4;2326;1901;419;671;35;6;3264;17242;4;1690;1661;582;559;32;7;3717;15726;4;3900;455;32;8;3662;15365;4;3835;461;31;9;1980;8294;4;2090;499;31
06.01.18;14:30:00;1;466;9515;0;2;2698;9623;4;2842;394;35;3;1742;6322;4;1847;497;31;4;779;7567;5;812;221;25;5;4462;21743;4;2419;1986;421;680;35;6;3401;16969;4;1759;1725;580;557;32;7;3924;15420;4;4121;457;32;8;3820;15063;4;4004;462;31;9;2069;8130;4;2191;506;32
06.01.18;14:25:00;1;369;9476;0;2;2774;9399;4;2919;393;35;3;1786;6177;4;1892;509;31;4;818;7502;5;852;227;25;5;4664;21370;4;2519;2069;420;672;35;6;3546;16685;4;1816;1766;582;556;32;7;4030;15093;4;4228;464;32;8;3966;14745;4;4157;458;31;9;2165;7958;4;2290;512;31
06.01.18;14:20:00;1;675;9444;0;2;2624;9167;4;2764;398;35;3;1686;6028;4;1789;513;31;4;812;7434;5;846;236;26;5;4500;20985;4;2441;2000;421;676;35;6;3433;16391;4;1782;1740;579;558;32;7;3822;14756;4;4014;454;32;8;3715;14414;4;3893;464;31;9;2018;7777;4;2140;522;31
06.01.18;14:15:00;1;366;9393;0;2;2434;8949;4;2568;392;35;3;1564;5888;4;1662;499;31;4;791;7366;5;823;226;26;5;4283;20611;4;2324;1904;420;672;35;6;3262;16106;4;1680;1640;577;561;32;7;3527;14437;4;3707;461;32;8;3445;14104;4;3609;456;32;9;1840;7609;4;1950;497;31
06.01.18;14:10:00;1;1352;9362;0;2;2458;8747;4;2592;397;35;3;1589;5758;4;1689;503;31;4;818;7301;5;851;225;26;5;4314;20254;4;2343;1911;416;670;35;6;3245;15836;4;1679;1630;575;553;32;7;3325;14140;4;3490;459;32;8;2942;13813;4;3084;463;32;9;1583;7455;4;1680;485;31